Regional Weather Roundup
Issued by NWS

Home | Current Version | Previous Version | Graphics & Text | Print | Product List | Glossary On
Versions: 1 2 3 4 5 6 7 8 9 10 11 12 13 14 15 16 17 18 19 20 21 22 23 24 25 26 27 28 29 30 31 32 33 34 35 36 37 38 39 40 41 42 43 44 45 46 47 48 49 50
000
ASUS43 KLSX 250507
RWRMO

WEATHER SUMMARY FOR MISSOURI
NATIONAL WEATHER SERVICE SPRINGFIELD MO
1200 AM CDT MON JUL 25 2016

NOTE: "FAIR" INDICATES FEW OR NO CLOUDS BELOW 12,000 FEET WITH NO
       SIGNIFICANT WEATHER AND/OR OBSTRUCTIONS TO VISIBILITY.
       CURRENT SKY AND/OR WEATHER CONDITIONS ARE NOT AVAILABLE FOR
       CHILLICOTHE AND FARMINGTON.

MOZ001>031-035>038-043-044-053-054-250600-
...NORTHERN AND WESTERN MISSOURI...

CITY           SKY/WX    TMP DP  RH WIND       PRES   REMARKS
KANSAS CTY INT CLOUDY    79  70  74 E6        30.01F
KANSAS C DTWN  CLOUDY    82  70  66 NE9       29.98S
LEE`S SUMMIT   CLOUDY    77  69  76 E5        30.01R
ST JOSEPH      CLOUDY    72  67  84 N6        30.01R
CHILLICOTHE      N/A     78  72  81 NW3       30.03R
KIRKSVILLE     CLOUDY    77  72  84 N6        30.01R

$$
MOZ066>068-077>081-088>096-101>105-250600-
...SOUTHWEST MISSOURI...

CITY           SKY/WX    TMP DP  RH WIND       PRES   REMARKS
SPRINGFIELD    CLEAR     83  75  77 S6        29.99S HX  90
JOPLIN         CLEAR     83  73  72 S5        29.98R
BRANSON        PTCLDY    77  73  88 CALM      30.01S

$$
MOZ032>034-039>042-045>050-055>058-069>072-250600-
...CENTRAL MISSOURI...

CITY           SKY/WX    TMP DP  RH WIND       PRES   REMARKS
COLUMBIA       CLOUDY    82  75  79 N12       29.97R
JEFFERSON CITY CLOUDY    81  74  79 CALM      29.94R THUNDER
ROLLA          PTCLDY    81  75  82 S9        29.97R
SEDALIA        TSTM      73  69  87 NE13      29.99F
WHITEMAN AFB   PTCLDY    70  69  99 SE3       29.95F
OSAGE BEACH    CLOUDY    82  79  90 CALM      29.97R HX  92

$$
MOZ051-052-059>065-250600-
...EAST CENTRAL MISSOURI...

CITY           SKY/WX    TMP DP  RH WIND       PRES   REMARKS
ST LOUIS INTL  CLOUDY    84  70  62 NW9G20    29.98R THUNDER
SPIRIT OF STL  CLOUDY    85  78  80 N6        29.96R THUNDER HX  96
ST CHARLES     TSTM      77  75  93 E7        29.96R

$$
MOZ072>076-082>087-097>100-106>115-250600-
...SOUTH CENTRAL AND SOUTHEAST MISSOURI...

CITY           SKY/WX    TMP DP  RH WIND       PRES   REMARKS
CAPE GIRARDEAU CLEAR     81  76  84 S7        29.94S
FARMINGTON     CLEAR     80  77  90 S3        29.99R
POPLAR BLUFF   CLEAR     82  77  84 S5        29.94F HX  90
WEST PLAINS    CLEAR     79  74  84 W3        30.01F

$$



USA.gov is the U.S. government's official web portal to all federal, state and local government web resources and services.